Year,Month,Day,Hour,Minute,Value (Times are PST for temperature in C)
2016,07,22,00,00,20.70
2016,07,22,00,01,20.70
2016,07,22,00,02,20.70
2016,07,22,00,03,20.60
2016,07,22,00,04,20.60
2016,07,22,00,05,20.50
2016,07,22,00,06,20.50
2016,07,22,00,07,20.40
2016,07,22,00,08,20.40
2016,07,22,00,09,20.30
2016,07,22,00,10,20.30
2016,07,22,00,11,20.30
2016,07,22,00,12,20.30
2016,07,22,00,13,20.30
2016,07,22,00,14,20.30
2016,07,22,00,15,20.30
2016,07,22,00,16,20.40
2016,07,22,00,17,20.40
2016,07,22,00,18,20.50
2016,07,22,00,19,20.50
2016,07,22,00,20,20.50
2016,07,22,00,21,20.50
2016,07,22,00,22,20.60
2016,07,22,00,23,20.60
2016,07,22,00,24,20.50
2016,07,22,00,25,20.50
2016,07,22,00,26,20.50
2016,07,22,00,27,20.50
2016,07,22,00,28,20.50
2016,07,22,00,29,20.50
2016,07,22,00,30,20.50
2016,07,22,00,31,20.50
2016,07,22,00,32,20.40
2016,07,22,00,33,20.40
2016,07,22,00,34,20.40
2016,07,22,00,35,20.40
2016,07,22,00,36,20.40
2016,07,22,00,37,20.40
2016,07,22,00,38,20.40
2016,07,22,00,39,20.40
2016,07,22,00,40,20.40
2016,07,22,00,41,20.40
2016,07,22,00,42,20.50
2016,07,22,00,43,20.50
2016,07,22,00,44,20.50
2016,07,22,00,45,20.50
2016,07,22,00,46,20.50
2016,07,22,00,47,20.40
2016,07,22,00,48,20.40
2016,07,22,00,49,20.40
2016,07,22,00,50,20.50
2016,07,22,00,51,20.50
2016,07,22,00,52,20.50
2016,07,22,00,53,20.50
2016,07,22,00,54,20.50
2016,07,22,00,55,20.50
2016,07,22,00,56,20.50
2016,07,22,00,57,20.60
2016,07,22,00,58,20.60
2016,07,22,00,59,20.60
2016,07,22,01,00,20.60
2016,07,22,01,01,20.60
2016,07,22,01,02,20.70
2016,07,22,01,03,20.70
2016,07,22,01,04,20.70
2016,07,22,01,05,20.70
2016,07,22,01,06,20.80
2016,07,22,01,07,20.80
2016,07,22,01,08,20.70
2016,07,22,01,09,20.70
2016,07,22,01,10,20.70
2016,07,22,01,11,20.70
2016,07,22,01,12,20.70
2016,07,22,01,13,20.70
2016,07,22,01,14,20.70
2016,07,22,01,15,20.70
2016,07,22,01,16,20.60
2016,07,22,01,17,20.60
2016,07,22,01,18,20.60
2016,07,22,01,19,20.60
2016,07,22,01,20,20.60
2016,07,22,01,21,20.60
2016,07,22,01,22,20.60
2016,07,22,01,23,20.60
2016,07,22,01,24,20.60
2016,07,22,01,25,20.60
2016,07,22,01,26,20.50
2016,07,22,01,27,20.50
2016,07,22,01,28,20.40
2016,07,22,01,29,20.40
2016,07,22,01,30,20.40
2016,07,22,01,31,20.40
2016,07,22,01,32,20.40
2016,07,22,01,33,20.50
2016,07,22,01,34,20.60
2016,07,22,01,35,20.60
2016,07,22,01,36,20.60
2016,07,22,01,37,20.60
2016,07,22,01,38,20.60
2016,07,22,01,39,20.50
2016,07,22,01,40,20.50
2016,07,22,01,41,20.40
2016,07,22,01,42,20.40
2016,07,22,01,43,20.40
2016,07,22,01,44,20.40
2016,07,22,01,45,20.40
2016,07,22,01,46,20.40
2016,07,22,01,47,20.40
2016,07,22,01,48,20.40
2016,07,22,01,49,20.40
2016,07,22,01,50,20.30
2016,07,22,01,51,20.30
2016,07,22,01,52,20.30
2016,07,22,01,53,20.30
2016,07,22,01,54,20.30
2016,07,22,01,55,20.30
2016,07,22,01,56,20.30
2016,07,22,01,57,20.20
2016,07,22,01,58,20.10
2016,07,22,01,59,20.00
2016,07,22,02,00,19.90
2016,07,22,02,01,19.80
2016,07,22,02,02,19.70
2016,07,22,02,03,19.50
2016,07,22,02,04,19.40
2016,07,22,02,05,19.30
2016,07,22,02,06,19.10
2016,07,22,02,07,19.00
2016,07,22,02,08,18.90
2016,07,22,02,09,18.80
2016,07,22,02,10,18.80
2016,07,22,02,11,18.70
2016,07,22,02,12,18.60
2016,07,22,02,13,18.60
2016,07,22,02,14,18.50
2016,07,22,02,15,18.40
2016,07,22,02,16,18.40
2016,07,22,02,17,18.30
2016,07,22,02,18,18.20
2016,07,22,02,19,18.20
2016,07,22,02,20,18.10
2016,07,22,02,21,18.10
2016,07,22,02,22,18.00
2016,07,22,02,23,18.00
2016,07,22,02,24,18.00
2016,07,22,02,25,18.00
2016,07,22,02,26,17.90
2016,07,22,02,27,17.90
2016,07,22,02,28,17.90
2016,07,22,02,29,17.90
2016,07,22,02,30,17.90
2016,07,22,02,31,17.80
2016,07,22,02,32,17.80
2016,07,22,02,33,17.80
2016,07,22,02,34,17.80
2016,07,22,02,35,17.80
2016,07,22,02,36,17.70
2016,07,22,02,37,17.70
2016,07,22,02,38,17.70
2016,07,22,02,39,17.70
2016,07,22,02,40,17.70
2016,07,22,02,41,17.70
2016,07,22,02,42,17.70
2016,07,22,02,43,17.60
2016,07,22,02,44,17.60
2016,07,22,02,45,17.60
2016,07,22,02,46,17.50
2016,07,22,02,47,17.50
2016,07,22,02,48,17.40
2016,07,22,02,49,17.30
2016,07,22,02,50,17.30
2016,07,22,02,51,17.20
2016,07,22,02,52,17.10
2016,07,22,02,53,17.10
2016,07,22,02,54,17.00
2016,07,22,02,55,16.90
2016,07,22,02,56,16.80
2016,07,22,02,57,16.80
2016,07,22,02,58,16.70
2016,07,22,02,59,16.60
2016,07,22,03,00,16.60
2016,07,22,03,01,16.50
2016,07,22,03,02,16.40
2016,07,22,03,03,16.40
2016,07,22,03,04,16.30
2016,07,22,03,05,16.30
2016,07,22,03,06,16.30
2016,07,22,03,07,16.20
2016,07,22,03,08,16.30
2016,07,22,03,09,16.30
2016,07,22,03,10,16.30
2016,07,22,03,11,16.30
2016,07,22,03,12,16.30
2016,07,22,03,13,16.30
2016,07,22,03,14,16.30
2016,07,22,03,15,16.30
2016,07,22,03,16,16.20
2016,07,22,03,17,16.20
2016,07,22,03,18,16.20
2016,07,22,03,19,16.20
2016,07,22,03,20,16.20
2016,07,22,03,21,16.20
2016,07,22,03,22,16.20
2016,07,22,03,23,16.10
2016,07,22,03,24,16.10
2016,07,22,03,25,16.10
2016,07,22,03,26,16.10
2016,07,22,03,27,16.00
2016,07,22,03,28,16.00
2016,07,22,03,29,16.00
2016,07,22,03,30,15.90
2016,07,22,03,31,15.90
2016,07,22,03,32,15.90
2016,07,22,03,33,15.80
2016,07,22,03,34,15.80
2016,07,22,03,35,15.80
2016,07,22,03,36,15.80
2016,07,22,03,37,15.80
2016,07,22,03,38,15.80
2016,07,22,03,39,15.70
2016,07,22,03,40,15.70
2016,07,22,03,41,15.70
2016,07,22,03,42,15.70
2016,07,22,03,43,15.70
2016,07,22,03,44,15.70
2016,07,22,03,45,15.70
2016,07,22,03,46,15.70
2016,07,22,03,47,15.70
2016,07,22,03,48,15.70
2016,07,22,03,49,15.60
2016,07,22,03,50,15.60
2016,07,22,03,51,15.60
2016,07,22,03,52,15.60
2016,07,22,03,53,15.60
2016,07,22,03,54,15.60
2016,07,22,03,55,15.50
2016,07,22,03,56,15.50
2016,07,22,03,57,15.50
2016,07,22,03,58,15.50
2016,07,22,03,59,15.50
2016,07,22,04,00,15.50
2016,07,22,04,01,15.40
2016,07,22,04,02,15.40
2016,07,22,04,03,15.40
2016,07,22,04,04,15.40
2016,07,22,04,05,15.40
2016,07,22,04,06,15.40
2016,07,22,04,07,15.40
2016,07,22,04,08,15.40
2016,07,22,04,09,15.40
2016,07,22,04,10,15.40
2016,07,22,04,11,15.40
2016,07,22,04,12,15.40
2016,07,22,04,13,15.40
2016,07,22,04,14,15.40
2016,07,22,04,15,15.40
2016,07,22,04,16,15.40
2016,07,22,04,17,15.40
2016,07,22,04,18,15.40
2016,07,22,04,19,15.40
2016,07,22,04,20,15.40
2016,07,22,04,21,15.30
2016,07,22,04,22,15.40
2016,07,22,04,23,15.30
2016,07,22,04,24,15.30
2016,07,22,04,25,15.30
2016,07,22,04,26,15.30
2016,07,22,04,27,15.30
2016,07,22,04,28,15.30
2016,07,22,04,29,15.30
2016,07,22,04,30,15.20
2016,07,22,04,31,15.20
2016,07,22,04,32,15.20
2016,07,22,04,33,15.20
2016,07,22,04,34,15.20
2016,07,22,04,35,15.20
2016,07,22,04,36,15.20
2016,07,22,04,37,15.10
2016,07,22,04,38,15.10
2016,07,22,04,39,15.10
2016,07,22,04,40,15.10
2016,07,22,04,41,15.10
2016,07,22,04,42,15.10
2016,07,22,04,43,15.10
2016,07,22,04,44,15.10
2016,07,22,04,45,15.10
2016,07,22,04,46,15.10
2016,07,22,04,47,15.20
2016,07,22,04,48,15.20
2016,07,22,04,49,15.20
2016,07,22,04,50,15.20
2016,07,22,04,51,15.20
2016,07,22,04,52,15.20
2016,07,22,04,53,15.20
2016,07,22,04,54,15.20
2016,07,22,04,55,15.20
2016,07,22,04,56,15.20
2016,07,22,04,57,15.20
2016,07,22,04,58,15.20
2016,07,22,04,59,15.20
2016,07,22,05,00,15.20
2016,07,22,05,01,15.30
2016,07,22,05,02,15.30
2016,07,22,05,03,15.30
2016,07,22,05,04,15.30
2016,07,22,05,05,15.30
2016,07,22,05,06,15.30
2016,07,22,05,07,15.30
2016,07,22,05,08,15.40
2016,07,22,05,09,15.40
2016,07,22,05,10,15.50
2016,07,22,05,11,15.50
2016,07,22,05,12,15.60
2016,07,22,05,13,15.60
2016,07,22,05,14,15.70
2016,07,22,05,15,15.70
2016,07,22,05,16,15.80
2016,07,22,05,17,15.90
2016,07,22,05,18,15.90
2016,07,22,05,19,15.90
2016,07,22,05,20,16.00
2016,07,22,05,21,16.00
2016,07,22,05,22,16.00
2016,07,22,05,23,16.10
2016,07,22,05,24,16.10
2016,07,22,05,25,16.20
2016,07,22,05,26,16.20
2016,07,22,05,27,16.20
2016,07,22,05,28,16.30
2016,07,22,05,29,16.30
2016,07,22,05,30,16.30
2016,07,22,05,31,16.30
2016,07,22,05,32,16.30
2016,07,22,05,33,16.30
2016,07,22,05,34,16.30
2016,07,22,05,35,16.30
2016,07,22,05,36,16.20
2016,07,22,05,37,16.20
2016,07,22,05,38,16.20
2016,07,22,05,39,16.20
2016,07,22,05,40,16.20
2016,07,22,05,41,16.20
2016,07,22,05,42,16.20
2016,07,22,05,43,16.10
2016,07,22,05,44,16.10
2016,07,22,05,45,16.10
2016,07,22,05,46,16.10
2016,07,22,05,47,16.10
2016,07,22,05,48,16.10
2016,07,22,05,49,16.10
2016,07,22,05,50,16.00
2016,07,22,05,51,16.00
2016,07,22,05,52,15.90
2016,07,22,05,53,15.90
2016,07,22,05,54,15.80
2016,07,22,05,55,15.80
2016,07,22,05,56,15.80
2016,07,22,05,57,15.70
2016,07,22,05,58,15.60
2016,07,22,05,59,15.60
2016,07,22,06,00,15.50
2016,07,22,06,01,15.40
2016,07,22,06,02,15.30
2016,07,22,06,03,15.30
2016,07,22,06,04,15.30
2016,07,22,06,05,15.20
2016,07,22,06,06,15.20
2016,07,22,06,07,15.20
2016,07,22,06,08,15.20
2016,07,22,06,09,15.10
2016,07,22,06,10,15.10
2016,07,22,06,11,15.10
2016,07,22,06,12,15.10
2016,07,22,06,13,15.20
2016,07,22,06,14,15.20
2016,07,22,06,15,15.20
2016,07,22,06,16,15.20
2016,07,22,06,17,15.20
2016,07,22,06,18,15.20
2016,07,22,06,19,15.20
2016,07,22,06,20,15.20
2016,07,22,06,21,15.20
2016,07,22,06,22,15.20
2016,07,22,06,23,15.20
2016,07,22,06,24,15.10
2016,07,22,06,25,15.20
2016,07,22,06,26,15.20
2016,07,22,06,27,15.20
2016,07,22,06,28,15.20
2016,07,22,06,29,15.20
2016,07,22,06,30,15.20
2016,07,22,06,31,15.20
2016,07,22,06,32,15.20
2016,07,22,06,33,15.20
2016,07,22,06,34,15.20
2016,07,22,06,35,15.20
2016,07,22,06,36,15.20
2016,07,22,06,37,15.10
2016,07,22,06,38,15.10
2016,07,22,06,39,15.10
2016,07,22,06,40,15.10
2016,07,22,06,41,15.10
2016,07,22,06,42,15.00
2016,07,22,06,43,15.00
2016,07,22,06,44,14.90
2016,07,22,06,45,14.90
2016,07,22,06,46,14.80
2016,07,22,06,47,14.80
2016,07,22,06,48,14.80
2016,07,22,06,49,14.70
2016,07,22,06,50,14.70
2016,07,22,06,51,14.70
2016,07,22,06,52,14.60
2016,07,22,06,53,14.60
2016,07,22,06,54,14.60
2016,07,22,06,55,14.60
2016,07,22,06,56,14.60
2016,07,22,06,57,14.50
2016,07,22,06,58,14.40
2016,07,22,06,59,14.40
2016,07,22,07,00,14.40
2016,07,22,07,01,14.40
2016,07,22,07,02,14.40
2016,07,22,07,03,14.40
2016,07,22,07,04,14.40
2016,07,22,07,05,14.40
2016,07,22,07,06,14.40
2016,07,22,07,07,14.40
2016,07,22,07,08,14.40
2016,07,22,07,09,14.40
2016,07,22,07,10,14.40
2016,07,22,07,11,14.40
2016,07,22,07,12,14.40
2016,07,22,07,13,14.40
2016,07,22,07,14,14.40
2016,07,22,07,15,14.40
2016,07,22,07,16,14.40
2016,07,22,07,17,14.40
2016,07,22,07,18,14.40
2016,07,22,07,19,14.40
2016,07,22,07,20,14.40
2016,07,22,07,21,14.40
2016,07,22,07,22,14.40
2016,07,22,07,23,14.40
2016,07,22,07,24,14.50
2016,07,22,07,25,14.50
2016,07,22,07,26,14.60
2016,07,22,07,27,14.60
2016,07,22,07,28,14.60
2016,07,22,07,29,14.60
2016,07,22,07,30,14.60
2016,07,22,07,31,14.60
2016,07,22,07,32,14.60
2016,07,22,07,33,14.60
2016,07,22,07,34,14.60
2016,07,22,07,35,14.60
2016,07,22,07,36,14.60
2016,07,22,07,37,14.60
2016,07,22,07,38,14.70
2016,07,22,07,39,14.70
2016,07,22,07,40,14.70
2016,07,22,07,41,14.80
2016,07,22,07,42,14.80
2016,07,22,07,43,14.80
2016,07,22,07,44,14.80
2016,07,22,07,45,14.80
2016,07,22,07,46,14.90
2016,07,22,07,47,14.90
2016,07,22,07,48,14.90
2016,07,22,07,49,14.90
2016,07,22,07,50,14.90
2016,07,22,07,51,14.90
2016,07,22,07,52,15.00
2016,07,22,07,53,15.00
2016,07,22,07,54,15.00
2016,07,22,07,55,15.00
2016,07,22,07,56,15.00
2016,07,22,07,57,15.00
2016,07,22,07,58,15.00
2016,07,22,07,59,15.00
2016,07,22,08,00,15.10
2016,07,22,08,01,15.10
2016,07,22,08,02,15.10
2016,07,22,08,03,15.10
2016,07,22,08,04,15.10
2016,07,22,08,05,15.10
2016,07,22,08,06,15.20
2016,07,22,08,07,15.20
2016,07,22,08,08,15.30
2016,07,22,08,09,15.30
2016,07,22,08,10,15.40
2016,07,22,08,11,15.40
2016,07,22,08,12,15.50
2016,07,22,08,13,15.60
2016,07,22,08,14,15.60
2016,07,22,08,15,15.70
2016,07,22,08,16,15.70
2016,07,22,08,17,15.70
2016,07,22,08,18,15.80
2016,07,22,08,19,15.80
2016,07,22,08,20,15.90
2016,07,22,08,21,15.90
2016,07,22,08,22,16.00
2016,07,22,08,23,16.00
2016,07,22,08,24,16.10
2016,07,22,08,25,16.10
2016,07,22,08,26,16.10
2016,07,22,08,27,16.10
2016,07,22,08,28,16.10
2016,07,22,08,29,16.10
2016,07,22,08,30,16.10
2016,07,22,08,31,16.10
2016,07,22,08,32,16.10
2016,07,22,08,33,16.10
2016,07,22,08,34,16.10
2016,07,22,08,35,16.10
2016,07,22,08,36,16.10
2016,07,22,08,37,16.10
2016,07,22,08,38,16.10
2016,07,22,08,39,16.10
2016,07,22,08,40,16.10
2016,07,22,08,41,16.10
2016,07,22,08,42,16.10
2016,07,22,08,43,16.20
2016,07,22,08,44,16.20
2016,07,22,08,45,16.20
2016,07,22,08,46,16.30
2016,07,22,08,47,16.40
2016,07,22,08,48,16.40
2016,07,22,08,49,16.50
2016,07,22,08,50,16.50
2016,07,22,08,51,16.60
2016,07,22,08,52,16.70
2016,07,22,08,53,16.70
2016,07,22,08,54,16.80
2016,07,22,08,55,16.80
2016,07,22,08,56,16.80
2016,07,22,08,57,16.90
2016,07,22,08,58,16.90
2016,07,22,08,59,16.90
2016,07,22,09,00,17.00
2016,07,22,09,01,17.00
2016,07,22,09,02,17.10
2016,07,22,09,03,17.10
2016,07,22,09,04,17.10
2016,07,22,09,05,17.10
2016,07,22,09,06,17.20
2016,07,22,09,07,17.20
2016,07,22,09,08,17.20
2016,07,22,09,09,17.30
2016,07,22,09,10,17.30
2016,07,22,09,11,17.40
2016,07,22,09,12,17.50
2016,07,22,09,13,17.50
2016,07,22,09,14,17.60
2016,07,22,09,15,17.60
2016,07,22,09,16,17.70
2016,07,22,09,17,17.70
2016,07,22,09,18,17.80
2016,07,22,09,19,17.80
2016,07,22,09,20,17.90
2016,07,22,09,21,18.00
2016,07,22,09,22,18.00
2016,07,22,09,23,18.10
2016,07,22,09,24,18.10
2016,07,22,09,25,18.20
2016,07,22,09,26,18.20
2016,07,22,09,27,18.20
2016,07,22,09,28,18.30
2016,07,22,09,29,18.30
2016,07,22,09,30,18.40
2016,07,22,09,31,18.40
2016,07,22,09,32,18.50
2016,07,22,09,33,18.50
2016,07,22,09,34,18.60
2016,07,22,09,35,18.60
2016,07,22,09,36,18.70
2016,07,22,09,37,18.70
2016,07,22,09,38,18.70
2016,07,22,09,39,18.80
2016,07,22,09,40,18.80
2016,07,22,09,41,18.90
2016,07,22,09,42,18.90
2016,07,22,09,43,18.90
2016,07,22,09,44,19.00
2016,07,22,09,45,19.00
2016,07,22,09,46,19.00
2016,07,22,09,47,19.00
2016,07,22,09,48,18.90
2016,07,22,09,49,18.90
2016,07,22,09,50,18.90
2016,07,22,09,51,18.90
2016,07,22,09,52,18.90
2016,07,22,09,53,19.00
2016,07,22,09,54,19.00
2016,07,22,09,55,19.10
2016,07,22,09,56,19.10
2016,07,22,09,57,19.20
2016,07,22,09,58,19.20
2016,07,22,09,59,19.30
2016,07,22,10,00,19.30
2016,07,22,10,01,19.40
2016,07,22,10,02,19.40
2016,07,22,10,03,19.50
2016,07,22,10,04,19.50
2016,07,22,10,05,19.60
2016,07,22,10,06,19.60
2016,07,22,10,07,19.60
2016,07,22,10,08,19.60
2016,07,22,10,09,19.60
2016,07,22,10,10,19.60
2016,07,22,10,11,19.70
2016,07,22,10,12,19.60
2016,07,22,10,13,19.60
2016,07,22,10,14,19.70
2016,07,22,10,15,19.70
2016,07,22,10,16,19.70
2016,07,22,10,17,19.70
2016,07,22,10,18,19.70
2016,07,22,10,19,19.80
2016,07,22,10,20,19.80
2016,07,22,10,21,19.70
2016,07,22,10,22,19.80
2016,07,22,10,23,19.80
2016,07,22,10,24,19.80
2016,07,22,10,25,19.90
2016,07,22,10,26,19.90
2016,07,22,10,27,19.90
2016,07,22,10,28,19.90
2016,07,22,10,29,19.90
2016,07,22,10,30,19.90
2016,07,22,10,31,19.90
2016,07,22,10,32,19.80
2016,07,22,10,33,19.80
2016,07,22,10,34,19.80
2016,07,22,10,35,19.80
2016,07,22,10,36,19.80
2016,07,22,10,37,19.80
2016,07,22,10,38,19.90
2016,07,22,10,39,19.80
2016,07,22,10,40,19.70
2016,07,22,10,41,19.70
2016,07,22,10,42,19.80
2016,07,22,10,43,19.90
2016,07,22,10,44,20.00
2016,07,22,10,45,20.10
2016,07,22,10,46,20.20
2016,07,22,10,47,20.30
2016,07,22,10,48,20.30
2016,07,22,10,49,20.30
2016,07,22,10,50,20.30
2016,07,22,10,51,20.30
2016,07,22,10,52,20.40
2016,07,22,10,53,20.40
2016,07,22,10,54,20.30
2016,07,22,10,55,20.30
2016,07,22,10,56,20.30
2016,07,22,10,57,20.40
2016,07,22,10,58,20.50
2016,07,22,10,59,20.50
2016,07,22,11,00,20.60
2016,07,22,11,01,20.60
2016,07,22,11,02,20.60
2016,07,22,11,03,20.60
2016,07,22,11,04,20.60
2016,07,22,11,05,20.70
2016,07,22,11,06,20.80
2016,07,22,11,07,20.90
2016,07,22,11,08,20.90
2016,07,22,11,09,20.80
2016,07,22,11,10,20.80
2016,07,22,11,11,20.80
2016,07,22,11,12,20.70
2016,07,22,11,13,20.70
2016,07,22,11,14,20.60
2016,07,22,11,15,20.60
2016,07,22,11,16,20.60
2016,07,22,11,17,20.50
2016,07,22,11,18,20.60
2016,07,22,11,19,20.60
2016,07,22,11,20,20.60
2016,07,22,11,21,20.60
2016,07,22,11,22,20.80
2016,07,22,11,23,20.90
2016,07,22,11,24,20.90
2016,07,22,11,25,20.90
2016,07,22,11,26,20.90
2016,07,22,11,27,20.90
2016,07,22,11,28,21.00
2016,07,22,11,29,21.00
2016,07,22,11,30,21.10
2016,07,22,11,31,21.10
2016,07,22,11,32,21.10
2016,07,22,11,33,21.10
2016,07,22,11,34,21.20
2016,07,22,11,35,21.30
2016,07,22,11,36,21.40
2016,07,22,11,37,21.40
2016,07,22,11,38,21.40
2016,07,22,11,39,21.40
2016,07,22,11,40,21.40
2016,07,22,11,41,21.40
2016,07,22,11,42,21.40
2016,07,22,11,43,21.40
2016,07,22,11,44,21.40
2016,07,22,11,45,21.30
2016,07,22,11,46,21.20
2016,07,22,11,47,21.10
2016,07,22,11,48,21.00
2016,07,22,11,49,20.90
2016,07,22,11,50,20.90
2016,07,22,11,51,21.00
2016,07,22,11,52,21.10
2016,07,22,11,53,21.30
2016,07,22,11,54,21.40
2016,07,22,11,55,21.50
2016,07,22,11,56,21.50
2016,07,22,11,57,21.60
2016,07,22,11,58,21.60
2016,07,22,11,59,21.60
2016,07,22,12,00,21.70
2016,07,22,12,01,21.80
2016,07,22,12,02,22.00
2016,07,22,12,03,22.10
2016,07,22,12,04,22.20
2016,07,22,12,05,22.20
2016,07,22,12,06,22.00
2016,07,22,12,07,21.90
2016,07,22,12,08,21.90
2016,07,22,12,09,22.00
2016,07,22,12,10,22.00
2016,07,22,12,11,22.00
2016,07,22,12,12,22.00
2016,07,22,12,13,22.00
2016,07,22,12,14,21.80
2016,07,22,12,15,21.70
2016,07,22,12,16,21.50
2016,07,22,12,17,21.40
2016,07,22,12,18,21.40
2016,07,22,12,19,21.20
2016,07,22,12,20,21.10
2016,07,22,12,21,20.80
2016,07,22,12,22,20.70
2016,07,22,12,23,20.60
2016,07,22,12,24,20.80
2016,07,22,12,25,21.00
2016,07,22,12,26,21.30
2016,07,22,12,27,21.60
2016,07,22,12,28,21.80
2016,07,22,12,29,21.80
2016,07,22,12,30,21.80
2016,07,22,12,31,21.90
2016,07,22,12,32,21.90
2016,07,22,12,33,22.00
2016,07,22,12,34,22.10
2016,07,22,12,35,22.20
2016,07,22,12,36,22.30
2016,07,22,12,37,22.50
2016,07,22,12,38,22.50
2016,07,22,12,39,22.40
2016,07,22,12,40,22.40
2016,07,22,12,41,22.40
2016,07,22,12,42,22.40
2016,07,22,12,43,22.50
2016,07,22,12,44,22.60
2016,07,22,12,45,22.60
2016,07,22,12,46,22.50
2016,07,22,12,47,22.40
2016,07,22,12,48,22.40
2016,07,22,12,49,22.30
2016,07,22,12,50,22.30
2016,07,22,12,51,22.20
2016,07,22,12,52,22.20
2016,07,22,12,53,22.10
2016,07,22,12,54,22.10
2016,07,22,12,55,22.10
2016,07,22,12,56,22.10
2016,07,22,12,57,22.20
2016,07,22,12,58,22.30
2016,07,22,12,59,22.40
2016,07,22,13,00,22.50
2016,07,22,13,01,22.60
2016,07,22,13,02,22.70
2016,07,22,13,03,22.90
2016,07,22,13,04,23.00
2016,07,22,13,05,23.00
2016,07,22,13,06,22.70
2016,07,22,13,07,22.50
2016,07,22,13,08,22.30
2016,07,22,13,09,22.20
2016,07,22,13,10,22.10
2016,07,22,13,11,22.00
2016,07,22,13,12,21.90
2016,07,22,13,13,22.00
2016,07,22,13,14,22.10
2016,07,22,13,15,22.30
2016,07,22,13,16,22.30
2016,07,22,13,17,22.30
2016,07,22,13,18,22.20
2016,07,22,13,19,22.20
2016,07,22,13,20,22.00
2016,07,22,13,21,21.70
2016,07,22,13,22,21.50
2016,07,22,13,23,21.40
2016,07,22,13,24,21.30
2016,07,22,13,25,21.30
2016,07,22,13,26,21.40
2016,07,22,13,27,21.60
2016,07,22,13,28,21.90
2016,07,22,13,29,22.00
2016,07,22,13,30,22.30
2016,07,22,13,31,22.40
2016,07,22,13,32,22.60
2016,07,22,13,33,22.90
2016,07,22,13,34,23.10
2016,07,22,13,35,23.30
2016,07,22,13,36,23.50
2016,07,22,13,37,23.60
2016,07,22,13,38,23.70
2016,07,22,13,39,23.80
2016,07,22,13,40,23.60
2016,07,22,13,41,23.30
2016,07,22,13,42,23.10
2016,07,22,13,43,23.10
2016,07,22,13,44,23.20
2016,07,22,13,45,23.20
2016,07,22,13,46,23.20
2016,07,22,13,47,23.20
2016,07,22,13,48,23.00
2016,07,22,13,49,22.70
2016,07,22,13,50,22.40
2016,07,22,13,51,22.10
2016,07,22,13,52,21.90
2016,07,22,13,53,21.80
2016,07,22,13,54,21.60
2016,07,22,13,55,21.50
2016,07,22,13,56,21.40
2016,07,22,13,57,21.40
2016,07,22,13,58,21.40
2016,07,22,13,59,21.40
2016,07,22,14,00,21.40
2016,07,22,14,01,21.30
2016,07,22,14,02,21.30
2016,07,22,14,03,21.40
2016,07,22,14,04,21.40
2016,07,22,14,05,21.40
2016,07,22,14,06,21.40
2016,07,22,14,07,21.40
2016,07,22,14,08,21.50
2016,07,22,14,09,21.60
2016,07,22,14,10,21.60
2016,07,22,14,11,21.70
2016,07,22,14,12,21.70
2016,07,22,14,13,21.90
2016,07,22,14,14,22.10
2016,07,22,14,15,22.30
2016,07,22,14,16,22.50
2016,07,22,14,17,22.50
2016,07,22,14,18,22.50
2016,07,22,14,19,22.30
2016,07,22,14,20,22.40
2016,07,22,14,21,22.60
2016,07,22,14,22,22.90
2016,07,22,14,23,23.30
2016,07,22,14,24,23.60
2016,07,22,14,25,23.90
2016,07,22,14,26,24.00
2016,07,22,14,27,24.00
2016,07,22,14,28,23.90
2016,07,22,14,29,23.80
2016,07,22,14,30,23.70
2016,07,22,14,31,23.70
2016,07,22,14,32,23.70
2016,07,22,14,33,23.80
2016,07,22,14,34,23.90
2016,07,22,14,35,24.00
2016,07,22,14,36,24.10
2016,07,22,14,37,24.10
2016,07,22,14,38,23.90
2016,07,22,14,39,23.80
2016,07,22,14,40,23.70
2016,07,22,14,41,23.50
2016,07,22,14,42,23.30
2016,07,22,14,43,23.10
2016,07,22,14,44,23.00
2016,07,22,14,45,22.80
2016,07,22,14,46,22.70
2016,07,22,14,47,22.80
2016,07,22,14,48,22.90
2016,07,22,14,49,23.00
2016,07,22,14,50,23.10
2016,07,22,14,51,23.20
2016,07,22,14,52,23.20
2016,07,22,14,53,23.30
2016,07,22,14,54,23.40
2016,07,22,14,55,23.40
2016,07,22,14,56,23.50
2016,07,22,14,57,23.40
2016,07,22,14,58,23.40
2016,07,22,14,59,23.30
2016,07,22,15,00,23.10
2016,07,22,15,01,22.90
2016,07,22,15,02,22.80
2016,07,22,15,03,22.90
2016,07,22,15,04,22.90
2016,07,22,15,05,22.80
2016,07,22,15,06,22.80
2016,07,22,15,07,22.80
2016,07,22,15,08,22.90
2016,07,22,15,09,22.90
2016,07,22,15,10,22.80
2016,07,22,15,11,22.80
2016,07,22,15,12,22.90
2016,07,22,15,13,22.80
2016,07,22,15,14,22.90
2016,07,22,15,15,22.90
2016,07,22,15,16,23.00
2016,07,22,15,17,23.20
2016,07,22,15,18,23.30
2016,07,22,15,19,23.40
2016,07,22,15,20,23.30
2016,07,22,15,21,23.20
2016,07,22,15,22,23.10
2016,07,22,15,23,23.10
2016,07,22,15,24,23.10
2016,07,22,15,25,23.10
2016,07,22,15,26,23.10
2016,07,22,15,27,23.10
2016,07,22,15,28,23.10
2016,07,22,15,29,23.20
2016,07,22,15,30,23.20
2016,07,22,15,31,23.20
2016,07,22,15,32,23.10
2016,07,22,15,33,23.10
2016,07,22,15,34,23.10
2016,07,22,15,35,23.00
2016,07,22,15,36,22.90
2016,07,22,15,37,22.80
2016,07,22,15,38,22.60
2016,07,22,15,39,22.50
2016,07,22,15,40,22.50
2016,07,22,15,41,22.60
2016,07,22,15,42,22.60
2016,07,22,15,43,22.50
2016,07,22,15,44,22.50
2016,07,22,15,45,22.60
2016,07,22,15,46,22.70
2016,07,22,15,47,22.80
2016,07,22,15,48,22.80
2016,07,22,15,49,22.80
2016,07,22,15,50,23.00
2016,07,22,15,51,23.10
2016,07,22,15,52,23.30
2016,07,22,15,53,23.40
2016,07,22,15,54,23.50
2016,07,22,15,55,23.40
2016,07,22,15,56,23.40
2016,07,22,15,57,23.40
2016,07,22,15,58,23.40
2016,07,22,15,59,23.50
2016,07,22,16,00,23.60
2016,07,22,16,01,23.60
2016,07,22,16,02,23.70
2016,07,22,16,03,23.80
2016,07,22,16,04,23.80
2016,07,22,16,05,23.80
2016,07,22,16,06,23.90
2016,07,22,16,07,23.90
2016,07,22,16,08,23.80
2016,07,22,16,09,23.60
2016,07,22,16,10,23.50
2016,07,22,16,11,23.30
2016,07,22,16,12,23.30
2016,07,22,16,13,23.30
2016,07,22,16,14,23.30
2016,07,22,16,15,23.20
2016,07,22,16,16,23.10
2016,07,22,16,17,23.20
2016,07,22,16,18,23.20
2016,07,22,16,19,23.20
2016,07,22,16,20,23.10
2016,07,22,16,21,23.00
2016,07,22,16,22,23.10
2016,07,22,16,23,23.10
2016,07,22,16,24,23.00
2016,07,22,16,25,22.90
2016,07,22,16,26,22.80
2016,07,22,16,27,22.70
2016,07,22,16,28,22.80
2016,07,22,16,29,22.80
2016,07,22,16,30,22.90
2016,07,22,16,31,23.00
2016,07,22,16,32,23.00
2016,07,22,16,33,22.90
2016,07,22,16,34,22.60
2016,07,22,16,35,22.50
2016,07,22,16,36,22.40
2016,07,22,16,37,22.50
2016,07,22,16,38,22.60
2016,07,22,16,39,22.50
2016,07,22,16,40,22.30
2016,07,22,16,41,22.40
2016,07,22,16,42,22.50
2016,07,22,16,43,22.60
2016,07,22,16,44,22.60
2016,07,22,16,45,22.70
2016,07,22,16,46,22.80
2016,07,22,16,47,22.80
2016,07,22,16,48,22.80
2016,07,22,16,49,22.80
2016,07,22,16,50,22.60
2016,07,22,16,51,22.50
2016,07,22,16,52,22.30
2016,07,22,16,53,22.20
2016,07,22,16,54,22.40
2016,07,22,16,55,22.50
2016,07,22,16,56,22.50
2016,07,22,16,57,22.30
2016,07,22,16,58,22.10
2016,07,22,16,59,21.90
2016,07,22,17,00,21.80
2016,07,22,17,01,21.70
2016,07,22,17,02,21.70
2016,07,22,17,03,21.70
2016,07,22,17,04,21.50
2016,07,22,17,05,21.40
2016,07,22,17,06,21.30
2016,07,22,17,07,21.30
2016,07,22,17,08,21.30
2016,07,22,17,09,21.40
2016,07,22,17,10,21.70
2016,07,22,17,11,21.90
2016,07,22,17,12,22.10
2016,07,22,17,13,22.30
2016,07,22,17,14,22.30
2016,07,22,17,15,22.30
2016,07,22,17,16,22.20
2016,07,22,17,17,22.10
2016,07,22,17,18,22.10
2016,07,22,17,19,22.00